Tracking 19247 objects as of 25-Sep-2018
HD Live streaming from Space Station
objects crossing your sky now

ANIK E2

Track ANIK E2 now!
ANIK E2 is classified as:


NORAD ID: 21222
Int'l Code: 1991-026A
Perigee: 36,086.3 km
Apogee: 36,148.6 km
Inclination: 11.8 °
Period: 1,452.7 minutes
Semi major axis: 42488 km
RCS: 12.1056 m2 (large)
Launch date: April 4, 1991
Source: Canada (CA)
Launch site: FRENCH GUIANA (FRGUI)

Inclined orbit; Anik is Inuit for "Little Brother"; 24 C-band, 16 Ku-band transponders.
aabbcc
Your satellite tracking list
Your tracking list is empty




NASA's NSSDC Master Catalog

Two Line Element Set (TLE):
1 21222U 91026A   18267.91414038 +.00000054 +00000-0 +00000-0 0  9990
2 21222 011.7795 032.7515 0007329 298.9967 047.2449 00.99128127089089
Source of the keplerian elements: AFSPC